TVP7473 LGKR-EPWA

Flight info

Callsign TVP7473
Flight time N/A
Altitude 18000
Route NIKRO M127 OVVER/N0440F400 DCT ALELU DCT PARAK DCT LITKU DCT MEBAN/N0454F410 M985 KOTEK M866 LOGDA
Aircraft B38M/M-SDE3FGHIJ1RWXYZ/LB1

Departure

Time 2026-04-29 10:41
Airport Corfu Ioannis Kapodistrias International Airport (LGKR)

Arrival

Time N/A
Airport Warsaw Chopin Airport (EPWA)
Time Latitude Longitude Altitude Speed Heading
2026-04-29 09:57 39.60879 19.91307 21 ft 0 kts 79°
2026-04-29 10:35 39.60877 19.91294 21 ft 4 kts 79°
2026-04-29 10:35 39.60872 19.91260 22 ft 4 kts 79°
2026-04-29 10:35 39.60867 19.91225 21 ft 4 kts 79°
2026-04-29 10:36 39.60859 19.91194 21 ft 4 kts 51°
2026-04-29 10:36 39.60840 19.91181 21 ft 3 kts 352°
2026-04-29 10:36 39.60819 19.91186 22 ft 4 kts 348°
2026-04-29 10:36 39.60814 19.91188 23 ft 0 kts 348°
2026-04-29 10:39 39.60822 19.91185 22 ft 5 kts 348°
2026-04-29 10:39 39.60893 19.91167 21 ft 15 kts 348°
2026-04-29 10:39 39.61010 19.91135 22 ft 20 kts 348°
2026-04-29 10:39 39.61144 19.91100 22 ft 19 kts 348°
2026-04-29 10:40 39.61217 19.91042 23 ft 13 kts 295°
2026-04-29 10:40 39.61213 19.90949 26 ft 9 kts 197°
2026-04-29 10:40 39.61195 19.90953 23 ft 0 kts 167°
2026-04-29 10:41 39.61165 19.90961 25 ft 14 kts 167°
2026-04-29 10:41 39.60787 19.91060 23 ft 95 kts 168°
2026-04-29 10:41 39.59912 19.91287 33 ft 158 kts 167°
2026-04-29 10:41 39.58761 19.91602 632 ft 170 kts 167°
2026-04-29 10:42 39.57666 19.92005 1685 ft 160 kts 155°
2026-04-29 10:42 39.56743 19.92770 2578 ft 162 kts 136°
2026-04-29 10:42 39.56095 19.93951 3507 ft 164 kts 116°
2026-04-29 10:42 39.55789 19.95355 4499 ft 163 kts 96°
2026-04-29 10:43 39.55937 19.96872 5276 ft 179 kts 72°
2026-04-29 10:43 39.56628 19.98278 6043 ft 194 kts 45°
2026-04-29 10:43 39.57684 19.99475 6803 ft 208 kts 43°
2026-04-29 10:43 39.58710 20.00828 7727 ft 212 kts 47°
2026-04-29 10:44 39.59744 20.02272 8533 ft 225 kts 47°
2026-04-29 10:44 39.60822 20.03802 9367 ft 236 kts 47°
2026-04-29 10:44 39.61958 20.05445 10035 ft 255 kts 47°
2026-04-29 10:44 39.63207 20.07229 10658 ft 275 kts 46°
2026-04-29 10:45 39.64549 20.09129 11308 ft 294 kts 46°
2026-04-29 10:45 39.66124 20.10877 12102 ft 304 kts 26°
2026-04-29 10:45 39.68098 20.11772 13127 ft 306 kts
2026-04-29 10:45 39.70254 20.11915 14216 ft 307 kts 354°
2026-04-29 10:46 39.72372 20.11708 15215 ft 313 kts 354°
2026-04-29 10:46 39.74565 20.11512 16218 ft 319 kts 354°
2026-04-29 10:46 39.76798 20.11308 17224 ft 322 kts 354°
2026-04-29 10:46 39.79051 20.11099 18159 ft 327 kts 354°
2026-04-29 10:47 39.81339 20.10887 19053 ft 331 kts 354°
2026-04-29 10:47 39.83647 20.10673 19893 ft 337 kts 354°
2026-04-29 10:47 39.86011 20.10454 20691 ft 342 kts 354°
2026-04-29 10:47 39.88400 20.10232 21489 ft 346 kts 354°
2026-04-29 10:48 39.90819 20.10006 22245 ft 351 kts 355°
2026-04-29 10:48 39.93271 20.09777 22981 ft 356 kts 355°
2026-04-29 10:48 39.95768 20.09545 23681 ft 362 kts 355°
2026-04-29 10:48 39.98290 20.09309 24397 ft 366 kts 355°
2026-04-29 10:49 40.00819 20.09073 25025 ft 372 kts 355°
2026-04-29 10:49 40.03416 20.08829 25675 ft 378 kts 355°
2026-04-29 10:49 40.06060 20.08583 26322 ft 382 kts 355°
2026-04-29 10:49 40.08723 20.08334 26999 ft 385 kts 355°
2026-04-29 10:50 40.11404 20.08084 27683 ft 386 kts 355°
2026-04-29 10:50 40.14092 20.07832 28343 ft 388 kts 355°
2026-04-29 10:50 40.16793 20.07578 28983 ft 390 kts 355°
2026-04-29 10:50 40.19504 20.07322 29601 ft 391 kts 354°
2026-04-29 10:51 40.22240 20.07064 30099 ft 396 kts 354°
2026-04-29 10:51 40.25009 20.06805 30550 ft 400 kts 354°
2026-04-29 10:51 40.27791 20.06542 31132 ft 402 kts 354°
2026-04-29 10:51 40.30590 20.06278 31638 ft 405 kts 354°
2026-04-29 10:52 40.33389 20.06013 32016 ft 411 kts 354°
2026-04-29 10:52 40.36305 20.05740 32379 ft 417 kts 354°
2026-04-29 10:52 40.39159 20.05470 32978 ft 416 kts 354°
2026-04-29 10:52 40.42047 20.05197 33518 ft 417 kts 354°
2026-04-29 10:53 40.44964 20.04921 33977 ft 420 kts 354°
2026-04-29 10:53 40.47880 20.04644 34473 ft 421 kts 354°
2026-04-29 10:53 40.50817 20.04365 34893 ft 424 kts 353°
2026-04-29 10:53 40.53769 20.04084 35320 ft 426 kts 353°
2026-04-29 10:54 40.56730 20.03801 35790 ft 427 kts 353°
2026-04-29 10:54 40.59672 20.03521 36328 ft 425 kts 353°
2026-04-29 10:54 40.62636 20.03237 36834 ft 424 kts 353°
2026-04-29 10:54 40.65538 20.02959 37298 ft 423 kts 353°
2026-04-29 10:55 40.68464 20.02680 37749 ft 422 kts 352°
2026-04-29 10:55 40.71387 20.02400 38152 ft 422 kts 352°
2026-04-29 10:55 40.74324 20.02119 38509 ft 423 kts 352°
2026-04-29 10:55 40.77255 20.01838 38871 ft 423 kts 352°
2026-04-29 10:56 40.80196 20.01556 39223 ft 423 kts 352°
2026-04-29 10:56 40.83130 20.01274 39603 ft 422 kts 352°
2026-04-29 10:56 40.86067 20.00992 39945 ft 422 kts 352°
2026-04-29 10:56 40.89001 20.00711 40128 ft 424 kts 352°
2026-04-29 10:57 40.91943 20.00429 40141 ft 422 kts 352°
2026-04-29 10:57 40.97747 19.99870 40133 ft 419 kts 352°
2026-04-29 10:58 41.03557 19.99309 40131 ft 419 kts 352°
2026-04-29 10:58 41.09380 19.98746 40123 ft 419 kts 352°
2026-04-29 10:59 41.15213 19.98181 40130 ft 422 kts 352°
2026-04-29 10:59 41.21063 19.97614 40130 ft 421 kts 352°
2026-04-29 11:00 41.26916 19.97046 40127 ft 422 kts 352°
2026-04-29 11:00 41.32778 19.96475 40131 ft 423 kts 352°
2026-04-29 11:01 41.38626 19.95905 40115 ft 418 kts 352°
2026-04-29 11:01 41.44405 19.95341 40099 ft 416 kts 352°
2026-04-29 11:02 41.50175 19.94775 40101 ft 420 kts 352°
2026-04-29 11:02 41.56016 19.94204 40112 ft 420 kts 352°
2026-04-29 11:03 41.61829 19.93633 40102 ft 417 kts 352°
2026-04-29 11:03 41.67596 19.93065 40100 ft 414 kts 351°
2026-04-29 11:04 41.73338 19.92500 40098 ft 414 kts 351°
2026-04-29 11:04 41.79099 19.91930 40102 ft 414 kts 352°
2026-04-29 11:05 41.84821 19.91365 40100 ft 415 kts 352°
2026-04-29 11:05 41.90582 19.90794 40105 ft 416 kts 352°
2026-04-29 11:06 41.96382 19.90218 40066 ft 419 kts 352°
2026-04-29 11:06 42.02223 19.89637 40085 ft 421 kts 352°
2026-04-29 11:07 42.08044 19.89057 40082 ft 417 kts 352°
2026-04-29 11:07 42.13777 19.88485 40076 ft 415 kts 351°
2026-04-29 11:08 42.19530 19.87909 40065 ft 414 kts 351°
2026-04-29 11:08 42.25303 19.87331 40084 ft 417 kts 351°
2026-04-29 11:09 42.31111 19.86748 40083 ft 421 kts 351°
2026-04-29 11:09 42.35983 19.86259 40072 ft 422 kts 352°
2026-04-29 11:10 42.41851 19.85668 40088 ft 424 kts 352°
2026-04-29 11:10 42.48682 19.85129 40055 ft 428 kts 358°
2026-04-29 11:11 42.53684 19.85432 40112 ft 426 kts 357°
2026-04-29 11:11 42.59543 19.85784 40105 ft 422 kts 358°
2026-04-29 11:12 42.65437 19.86149 40098 ft 425 kts 358°
2026-04-29 11:12 42.71335 19.86516 40099 ft 423 kts 358°
2026-04-29 11:13 42.77219 19.86885 40105 ft 423 kts 358°
2026-04-29 11:13 42.83043 19.87250 40104 ft 420 kts 357°
2026-04-29 11:14 42.88877 19.87617 40096 ft 420 kts 357°
2026-04-29 11:14 42.94733 19.87986 40107 ft 421 kts 358°
2026-04-29 11:15 43.00585 19.88356 40102 ft 420 kts 358°
2026-04-29 11:15 43.06442 19.88726 40107 ft 422 kts 358°
2026-04-29 11:16 43.12284 19.89096 40077 ft 419 kts 357°
2026-04-29 11:16 43.18115 19.89466 40079 ft 420 kts 357°
2026-04-29 11:17 43.23970 19.89839 40084 ft 421 kts 357°
2026-04-29 11:17 43.29818 19.90212 40058 ft 420 kts 357°
2026-04-29 11:18 43.35622 19.90582 40067 ft 420 kts 357°
2026-04-29 11:18 43.41461 19.90956 40089 ft 419 kts 357°
2026-04-29 11:19 43.47294 19.91330 40077 ft 419 kts 357°
2026-04-29 11:19 43.53106 19.91703 40073 ft 419 kts 357°
2026-04-29 11:20 43.58953 19.92079 40078 ft 419 kts 357°
2026-04-29 11:20 43.64726 19.92451 40080 ft 417 kts 357°
2026-04-29 11:21 43.70522 19.92826 40146 ft 417 kts 356°
2026-04-29 11:21 43.76319 19.93201 40159 ft 416 kts 357°
2026-04-29 11:22 43.82096 19.93576 40158 ft 415 kts 357°
2026-04-29 11:22 43.87829 19.93949 40160 ft 415 kts 357°
2026-04-29 11:23 43.93609 19.94325 40151 ft 415 kts 357°
2026-04-29 11:23 43.99385 19.94702 40162 ft 416 kts 357°
2026-04-29 11:24 44.05164 19.95079 40156 ft 415 kts 356°
2026-04-29 11:24 44.10938 19.95457 40158 ft 416 kts 357°
2026-04-29 11:25 44.16704 19.95836 40154 ft 417 kts 357°
2026-04-29 11:25 44.22479 19.96215 40157 ft 414 kts 357°
2026-04-29 11:26 44.31051 19.96780 40154 ft 409 kts 356°
2026-04-29 11:26 44.36749 19.97157 40155 ft 410 kts 356°
2026-04-29 11:27 44.42445 19.97534 40155 ft 409 kts 356°
2026-04-29 11:27 44.48141 19.97912 40157 ft 409 kts 356°
2026-04-29 11:28 44.53790 19.98287 40157 ft 409 kts 356°
2026-04-29 11:28 44.59474 19.98665 40157 ft 409 kts 356°
2026-04-29 11:29 44.65165 19.99045 40157 ft 409 kts 356°
2026-04-29 11:29 44.70854 19.99425 40155 ft 408 kts 356°
2026-04-29 11:30 44.76531 19.99806 40158 ft 409 kts 356°
2026-04-29 11:30 44.82180 20.00185 40170 ft 408 kts 356°
2026-04-29 11:31 44.87842 20.00565 40182 ft 408 kts 356°
2026-04-29 11:31 44.93532 20.00949 40185 ft 408 kts 356°
2026-04-29 11:32 44.99211 20.01332 40182 ft 408 kts 356°
2026-04-29 11:32 45.04894 20.01716 40181 ft 409 kts 356°
2026-04-29 11:33 45.10576 20.02101 40182 ft 409 kts 356°
2026-04-29 11:33 45.16264 20.02488 40184 ft 409 kts 356°
2026-04-29 11:34 45.21902 20.02871 40186 ft 408 kts 356°
2026-04-29 11:34 45.27612 20.03261 40182 ft 408 kts 356°
2026-04-29 11:35 45.33256 20.03646 40186 ft 408 kts 356°
2026-04-29 11:35 45.38933 20.04034 40203 ft 406 kts 355°
2026-04-29 11:36 45.44566 20.04421 40209 ft 404 kts 355°
2026-04-29 11:36 45.50151 20.04805 40211 ft 404 kts 355°
2026-04-29 11:37 45.55784 20.05193 40211 ft 404 kts 355°
2026-04-29 11:37 45.61398 20.05581 40211 ft 404 kts 355°
2026-04-29 11:38 45.67021 20.05969 40211 ft 404 kts 355°
2026-04-29 11:38 45.72635 20.06358 40211 ft 404 kts 355°
2026-04-29 11:39 45.78218 20.06746 40211 ft 404 kts 355°
2026-04-29 11:39 45.83835 20.07136 40211 ft 404 kts 355°
2026-04-29 11:40 45.89456 20.07528 40211 ft 404 kts 355°
2026-04-29 11:40 45.95076 20.07920 40198 ft 404 kts 355°
2026-04-29 11:41 46.00679 20.08312 40186 ft 403 kts 355°
2026-04-29 11:41 46.06294 20.08705 40180 ft 403 kts 355°
2026-04-29 11:42 46.11897 20.09099 40182 ft 403 kts 355°
2026-04-29 11:42 46.17429 20.09144 40179 ft 392 kts 344°
2026-04-29 11:43 46.22831 20.07903 40187 ft 393 kts 345°
2026-04-29 11:43 46.28243 20.06674 40181 ft 393 kts 344°
2026-04-29 11:44 46.33637 20.05427 40182 ft 393 kts 344°
2026-04-29 11:44 46.39059 20.04167 40187 ft 393 kts 344°
2026-04-29 11:45 46.44528 20.03414 40180 ft 403 kts 358°
2026-04-29 11:45 46.50107 20.04147 40207 ft 403 kts 358°
2026-04-29 11:46 46.55675 20.04837 40209 ft 401 kts 358°
2026-04-29 11:46 46.61242 20.05530 40211 ft 401 kts 358°
2026-04-29 11:47 46.66798 20.06223 40211 ft 401 kts 358°
2026-04-29 11:47 46.72333 20.06914 40211 ft 401 kts 358°
2026-04-29 11:48 46.77928 20.07614 40213 ft 401 kts 358°
2026-04-29 11:48 46.83450 20.08307 40211 ft 401 kts 358°
2026-04-29 11:49 46.89008 20.09003 40212 ft 401 kts 358°
2026-04-29 11:49 46.94575 20.09706 40212 ft 401 kts 358°
2026-04-29 11:50 47.00149 20.10387 40212 ft 403 kts 358°
2026-04-29 11:50 47.05743 20.11498 40193 ft 414 kts 12°
2026-04-29 11:51 47.08341 20.13415 39640 ft 426 kts 28°
2026-04-29 11:51 47.10477 20.16427 39097 ft 441 kts 45°
2026-04-29 11:51 47.12044 20.20380 38274 ft 456 kts 61°
2026-04-29 11:51 47.12860 20.24964 37194 ft 473 kts 78°
2026-04-29 11:52 47.12832 20.29841 36067 ft 483 kts 94°
2026-04-29 11:52 47.12352 20.34743 34933 ft 486 kts 96°
2026-04-29 11:52 47.12184 20.36357 34553 ft 487 kts 96°